Simultaneous Nadir Overpasses (SNOs) Predictions

Prediction of SNOs between GOES-15 and METOP-C Satellite Orbit:

Table of predicted SNOs for the next 14.0 days since TLE Epoch: 11/29/2019
Index Date Time (GOES-15) GOES-15 Lat,Lon METOP-C Lat,Lon Distance(km) Time Diff (sec)
1 12/01/2019 06:06:03 0.19,-128.36 0.14,-128.59 25.12 80
2 12/03/2019 18:04:14 -0.18,-128.30 -0.19,-128.14 17.50 80
3 12/06/2019 05:59:54 0.17,-128.26 0.30,-127.75 59.40 80
4 12/07/2019 18:21:24 -0.16,-128.21 0.77,-132.30 465.95 80
5 12/08/2019 17:58:05 -0.16,-128.19 -0.36,-127.31 100.63 80
6 12/10/2019 06:19:44 0.15,-128.17 -0.67,-131.90 424.82 80
7 12/11/2019 05:56:25 0.16,-128.14 0.46,-126.91 141.05 80
8 12/12/2019 18:17:55 -0.14,-128.07 0.60,-131.46 385.81 80




NCC Satellite Simultaneous Nadir Overpasses (SNOs) Prediction Service
